Time,TemperatureF,DewpointF,PressureIn,WindDirection,WindDirectionDegrees,WindSpeedMPH,WindSpeedGustMPH,Humidity,HourlyPrecipIn,Conditions,Clouds,dailyrainin,SoftwareType,DateUTC
2013-01-17 00:04:00,29.1,22.8,30.16,ESE,123,0.0,0.0,77,0.00,,,0.00,VWS V14.01,2013-01-17 06:04:00,
2013-01-17 00:09:00,29.0,23.0,30.16,ESE,123,0.0,0.0,78,0.00,,,0.00,VWS V14.01,2013-01-17 06:09:00,
2013-01-17 00:14:00,28.8,22.8,30.16,ESE,123,0.0,0.0,78,0.00,,,0.00,VWS V14.01,2013-01-17 06:14:00,
2013-01-17 00:19:00,28.6,22.6,30.16,ESE,123,0.0,0.0,78,0.00,,,0.00,VWS V14.01,2013-01-17 06:19:00,
2013-01-17 00:24:00,28.5,22.8,30.17,ESE,123,0.0,0.0,79,0.00,,,0.00,VWS V14.01,2013-01-17 06:24:00,
2013-01-17 00:29:00,28.4,23.0,30.17,ESE,123,0.0,0.0,80,0.00,,,0.00,VWS V14.01,2013-01-17 06:29:00,
2013-01-17 00:34:00,28.4,23.0,30.17,ESE,123,0.0,0.0,80,0.00,,,0.00,VWS V14.01,2013-01-17 06:34:00,
2013-01-17 00:39:00,28.3,22.9,30.17,ESE,123,0.0,0.0,80,0.00,,,0.00,VWS V14.01,2013-01-17 06:39:00,
2013-01-17 00:44:00,28.4,23.3,30.17,ESE,123,0.0,1.0,81,0.00,,,0.00,VWS V14.01,2013-01-17 06:44:00,
2013-01-17 00:49:00,28.4,23.3,30.17,ESE,123,0.0,1.0,81,0.00,,,0.00,VWS V14.01,2013-01-17 06:49:00,
2013-01-17 00:54:00,28.4,23.0,30.17,ESE,123,0.0,1.0,80,0.00,,,0.00,VWS V14.01,2013-01-17 06:54:00,
2013-01-17 00:59:00,28.3,22.9,30.17,ESE,123,0.0,1.0,80,0.00,,,0.00,VWS V14.01,2013-01-17 06:59:00,
2013-01-17 01:04:00,28.1,22.7,30.18,ESE,123,0.0,0.0,80,0.00,,,0.00,VWS V14.01,2013-01-17 07:04:00,
2013-01-17 01:09:00,27.8,22.4,30.18,ESE,123,0.0,0.0,80,0.00,,,0.00,VWS V14.01,2013-01-17 07:09:00,
2013-01-17 01:14:00,27.5,22.1,30.18,ESE,123,0.0,2.0,80,0.00,,,0.00,VWS V14.01,2013-01-17 07:14:00,
2013-01-17 01:19:00,27.3,22.2,30.18,ESE,123,0.0,2.0,81,0.00,,,0.00,VWS V14.01,2013-01-17 07:19:00,
2013-01-17 01:24:00,27.1,22.1,30.18,ESE,123,0.0,2.0,81,0.00,,,0.00,VWS V14.01,2013-01-17 07:24:00,
2013-01-17 01:29:00,27.0,22.2,30.18,ESE,123,0.0,2.0,82,0.00,,,0.00,VWS V14.01,2013-01-17 07:29:00,
2013-01-17 01:34:00,26.9,22.1,30.19,ESE,123,0.0,0.0,82,0.00,,,0.00,VWS V14.01,2013-01-17 07:34:00,
2013-01-17 01:39:00,26.8,22.0,30.19,ESE,123,0.0,0.0,82,0.00,,,0.00,VWS V14.01,2013-01-17 07:39:00,
2013-01-17 01:44:00,26.7,22.0,30.19,ESE,123,0.0,0.0,82,0.00,,,0.00,VWS V14.01,2013-01-17 07:44:00,
2013-01-17 01:49:00,26.6,21.9,30.19,ESE,123,0.0,0.0,82,0.00,,,0.00,VWS V14.01,2013-01-17 07:49:00,
2013-01-17 01:54:00,26.5,22.0,30.19,ESE,123,1.0,2.0,83,0.00,,,0.00,VWS V14.01,2013-01-17 07:54:00,
2013-01-17 01:59:00,26.6,22.1,30.19,ESE,123,0.0,4.0,83,0.00,,,0.00,VWS V14.01,2013-01-17 07:59:00,
2013-01-17 02:04:00,26.7,22.0,30.20,ESE,123,0.0,0.0,82,0.00,,,0.00,VWS V14.01,2013-01-17 08:04:00,
2013-01-17 02:09:00,26.7,22.0,30.20,ESE,123,0.0,0.0,82,0.00,,,0.00,VWS V14.01,2013-01-17 08:09:00,
2013-01-17 02:14:00,26.7,22.2,30.20,ESE,123,0.0,0.0,83,0.00,,,0.00,VWS V14.01,2013-01-17 08:14:00,
2013-01-17 02:19:00,26.7,22.2,30.20,ESE,123,1.0,2.0,83,0.00,,,0.00,VWS V14.01,2013-01-17 08:19:00,
2013-01-17 02:24:00,27.6,24.0,30.21,West,267,0.0,4.0,86,0.00,,,0.00,VWS V14.01,2013-01-17 08:24:00,
2013-01-17 02:29:00,29.5,25.6,30.21,West,269,0.0,4.0,85,0.00,,,0.00,VWS V14.01,2013-01-17 08:29:00,
2013-01-17 02:34:00,31.7,26.5,30.21,WNW,298,4.0,5.0,81,0.00,,,0.00,VWS V14.01,2013-01-17 08:34:00,
2013-01-17 02:39:00,33.0,26.9,30.21,WNW,298,1.0,5.0,78,0.00,,,0.00,VWS V14.01,2013-01-17 08:39:00,
2013-01-17 02:44:00,33.9,27.1,30.21,NW,310,6.0,8.0,76,0.00,,,0.00,VWS V14.01,2013-01-17 08:44:00,
2013-01-17 02:49:00,34.6,27.2,30.21,WNW,290,2.0,8.0,74,0.00,,,0.00,VWS V14.01,2013-01-17 08:49:00,
2013-01-17 02:54:00,35.0,27.2,30.21,WNW,302,0.0,8.0,73,0.00,,,0.00,VWS V14.01,2013-01-17 08:54:00,
2013-01-17 02:59:00,35.1,27.3,30.21,WNW,302,6.0,8.0,73,0.00,,,0.00,VWS V14.01,2013-01-17 08:59:00,
2013-01-17 03:04:00,35.2,27.4,30.21,WNW,300,2.0,7.0,73,0.00,,,0.00,VWS V14.01,2013-01-17 09:04:00,
2013-01-17 03:09:00,35.2,27.4,30.22,West,271,5.0,8.0,73,0.00,,,0.00,VWS V14.01,2013-01-17 09:09:00,
2013-01-17 03:14:00,35.2,27.8,30.22,NW,320,5.0,8.0,74,0.00,,,0.00,VWS V14.01,2013-01-17 09:14:00,
2013-01-17 03:19:00,35.2,27.8,30.22,West,281,4.0,8.0,74,0.00,,,0.00,VWS V14.01,2013-01-17 09:19:00,
2013-01-17 03:24:00,35.1,27.7,30.22,West,279,0.0,8.0,74,0.00,,,0.00,VWS V14.01,2013-01-17 09:24:00,
2013-01-17 03:29:00,35.0,27.9,30.23,WNW,283,0.0,8.0,75,0.00,,,0.00,VWS V14.01,2013-01-17 09:29:00,
2013-01-17 03:34:00,34.9,28.1,30.23,WNW,286,5.0,7.0,76,0.00,,,0.00,VWS V14.01,2013-01-17 09:34:00,
2013-01-17 03:39:00,35.0,28.2,30.23,WNW,283,1.0,7.0,76,0.00,,,0.00,VWS V14.01,2013-01-17 09:39:00,
2013-01-17 03:44:00,35.0,28.2,30.23,WNW,293,1.0,7.0,76,0.00,,,0.00,VWS V14.01,2013-01-17 09:44:00,
2013-01-17 03:49:00,34.9,28.4,30.23,WNW,293,0.0,7.0,77,0.00,,,0.00,VWS V14.01,2013-01-17 09:49:00,
2013-01-17 03:54:00,34.8,28.3,30.24,WNW,293,1.0,7.0,77,0.00,,,0.00,VWS V14.01,2013-01-17 09:54:00,
2013-01-17 03:59:00,34.4,27.6,30.24,WNW,293,0.0,7.0,76,0.00,,,0.00,VWS V14.01,2013-01-17 09:59:00,
2013-01-17 04:04:00,34.0,27.6,30.24,WNW,293,0.0,2.0,77,0.00,,,0.00,VWS V14.01,2013-01-17 10:04:00,
2013-01-17 04:09:00,33.7,27.6,30.25,WNW,293,1.0,4.0,78,0.00,,,0.00,VWS V14.01,2013-01-17 10:09:00,
2013-01-17 04:14:00,33.6,27.8,30.25,WNW,293,1.0,4.0,79,0.00,,,0.00,VWS V14.01,2013-01-17 10:14:00,
2013-01-17 04:19:00,33.6,28.1,30.25,WNW,290,2.0,5.0,80,0.00,,,0.00,VWS V14.01,2013-01-17 10:19:00,
2013-01-17 04:24:00,33.8,28.6,30.25,WNW,282,0.0,7.0,81,0.00,,,0.00,VWS V14.01,2013-01-17 10:24:00,
2013-01-17 04:29:00,33.9,28.7,30.25,West,281,0.0,7.0,81,0.00,,,0.00,VWS V14.01,2013-01-17 10:29:00,
2013-01-17 04:34:00,34.1,28.9,30.25,West,281,0.0,5.0,81,0.00,,,0.00,VWS V14.01,2013-01-17 10:34:00,
2013-01-17 04:40:00,34.1,28.9,30.25,West,261,0.0,5.0,81,0.00,,,0.00,VWS V14.01,2013-01-17 10:40:00,
2013-01-17 04:45:00,34.1,29.2,30.26,West,274,0.0,5.0,82,0.00,,,0.00,VWS V14.01,2013-01-17 10:45:00,
2013-01-17 04:50:00,34.1,29.2,30.26,WNW,288,0.0,5.0,82,0.00,,,0.00,VWS V14.01,2013-01-17 10:50:00,
2013-01-17 04:55:00,34.0,28.8,30.26,WNW,288,0.0,5.0,81,0.00,,,0.00,VWS V14.01,2013-01-17 10:55:00,
2013-01-17 05:00:00,33.9,29.0,30.26,WNW,288,0.0,5.0,82,0.00,,,0.00,VWS V14.01,2013-01-17 11:00:00,
2013-01-17 05:05:00,33.8,28.9,30.27,WNW,288,2.0,4.0,82,0.00,,,0.00,VWS V14.01,2013-01-17 11:05:00,
2013-01-17 05:10:00,33.8,28.9,30.27,WNW,289,0.0,4.0,82,0.00,,,0.00,VWS V14.01,2013-01-17 11:10:00,
2013-01-17 05:15:00,33.7,28.8,30.28,WNW,290,6.0,6.0,82,0.00,,,0.00,VWS V14.01,2013-01-17 11:15:00,
2013-01-17 05:20:00,33.7,29.1,30.28,WNW,290,5.0,6.0,83,0.00,,,0.00,VWS V14.01,2013-01-17 11:20:00,
2013-01-17 05:25:00,33.7,29.1,30.28,WNW,288,4.0,7.0,83,0.00,,,0.00,VWS V14.01,2013-01-17 11:25:00,
2013-01-17 05:30:00,33.6,29.0,30.29,WNW,289,1.0,7.0,83,0.00,,,0.00,VWS V14.01,2013-01-17 11:30:00,
2013-01-17 05:35:00,33.6,29.0,30.29,WNW,289,0.0,2.0,83,0.00,,,0.00,VWS V14.01,2013-01-17 11:35:00,
2013-01-17 05:40:00,33.7,29.4,30.29,West,280,1.0,7.0,84,0.00,,,0.00,VWS V14.01,2013-01-17 11:40:00,
2013-01-17 05:45:00,33.7,29.4,30.30,West,281,1.0,9.0,84,0.00,,,0.00,VWS V14.01,2013-01-17 11:45:00,
2013-01-17 05:50:00,33.8,29.5,30.30,East,86,1.0,9.0,84,0.00,,,0.00,VWS V14.01,2013-01-17 11:50:00,
2013-01-17 05:55:00,33.9,29.6,30.30,WNW,291,6.0,9.0,84,0.00,,,0.00,VWS V14.01,2013-01-17 11:55:00,
2013-01-17 06:00:00,33.9,29.6,30.30,WNW,293,0.0,0.0,84,0.00,,,0.00,VWS V14.01,2013-01-17 12:00:00,
2013-01-17 06:05:00,33.9,29.6,30.30,West,260,3.0,5.0,84,0.00,,,0.00,VWS V14.01,2013-01-17 12:05:00,
2013-01-17 06:10:00,33.9,29.3,30.30,SSE,165,1.0,7.0,83,0.00,,,0.00,VWS V14.01,2013-01-17 12:10:00,
2013-01-17 06:15:00,33.8,29.2,30.30,West,263,0.0,7.0,83,0.00,,,0.00,VWS V14.01,2013-01-17 12:15:00,
2013-01-17 06:20:00,33.8,29.2,30.30,WSW,242,0.0,7.0,83,0.00,,,0.00,VWS V14.01,2013-01-17 12:20:00,
2013-01-17 06:25:00,33.8,29.2,30.30,SSW,204,0.0,7.0,83,0.00,,,0.00,VWS V14.01,2013-01-17 12:25:00,
2013-01-17 06:30:00,33.7,28.8,30.31,NW,314,0.0,0.0,82,0.00,,,0.00,VWS V14.01,2013-01-17 12:30:00,
2013-01-17 06:35:00,33.5,28.6,30.31,SSW,205,2.0,5.0,82,0.00,,,0.00,VWS V14.01,2013-01-17 12:35:00,
2013-01-17 06:40:00,33.3,28.4,30.31,South,173,4.0,5.0,82,0.00,,,0.00,VWS V14.01,2013-01-17 12:40:00,
2013-01-17 06:45:00,33.1,28.2,30.31,SW,223,1.0,5.0,82,0.00,,,0.00,VWS V14.01,2013-01-17 12:45:00,
2013-01-17 06:50:00,32.9,28.0,30.32,West,275,2.0,5.0,82,0.00,,,0.00,VWS V14.01,2013-01-17 12:50:00,
2013-01-17 06:55:00,32.7,27.8,30.32,West,271,4.0,5.0,82,0.00,,,0.00,VWS V14.01,2013-01-17 12:55:00,
2013-01-17 07:00:00,32.5,27.6,30.32,West,259,0.0,0.0,82,0.00,,,0.00,VWS V14.01,2013-01-17 13:00:00,
2013-01-17 07:05:00,32.4,27.5,30.32,SW,234,3.0,5.0,82,0.00,,,0.00,VWS V14.01,2013-01-17 13:05:00,
2013-01-17 07:10:00,32.3,27.4,30.32,WNW,284,5.0,6.0,82,0.00,,,0.00,VWS V14.01,2013-01-17 13:10:00,
2013-01-17 07:15:00,32.3,27.4,30.33,WNW,286,0.0,8.0,82,0.00,,,0.00,VWS V14.01,2013-01-17 13:15:00,
2013-01-17 07:20:00,32.3,27.4,30.33,West,267,2.0,8.0,82,0.00,,,0.00,VWS V14.01,2013-01-17 13:20:00,
2013-01-17 07:25:00,32.2,27.3,30.33,South,169,1.0,8.0,82,0.00,,,0.00,VWS V14.01,2013-01-17 13:25:00,
2013-01-17 07:30:00,32.1,27.2,30.33,WNW,298,1.0,4.0,82,0.00,,,0.00,VWS V14.01,2013-01-17 13:30:00,
2013-01-17 07:35:00,32.0,27.1,30.34,SSE,164,2.0,9.0,82,0.00,,,0.00,VWS V14.01,2013-01-17 13:35:00,
2013-01-17 07:40:00,32.0,27.1,30.34,ESE,113,2.0,9.0,82,0.00,,,0.00,VWS V14.01,2013-01-17 13:40:00,
2013-01-17 07:45:00,32.0,27.1,30.35,SSE,160,0.0,9.0,82,0.00,,,0.00,VWS V14.01,2013-01-17 13:45:00,
2013-01-17 07:50:00,31.9,26.7,30.35,West,266,0.0,9.0,81,0.00,,,0.00,VWS V14.01,2013-01-17 13:50:00,
2013-01-17 07:55:00,31.9,26.7,30.35,WSW,246,1.0,9.0,81,0.00,,,0.00,VWS V14.01,2013-01-17 13:55:00,
2013-01-17 08:00:00,31.8,26.6,30.36,SW,223,4.0,5.0,81,0.00,,,0.00,VWS V14.01,2013-01-17 14:00:00,
2013-01-17 08:05:00,31.7,26.5,30.36,WSW,238,0.0,7.0,81,0.00,,,0.00,VWS V14.01,2013-01-17 14:05:00,
2013-01-17 08:10:00,31.7,26.5,30.37,WSW,238,1.0,7.0,81,0.00,,,0.00,VWS V14.01,2013-01-17 14:10:00,
2013-01-17 08:15:00,31.6,26.1,30.37,WNW,286,1.0,7.0,80,0.00,,,0.00,VWS V14.01,2013-01-17 14:15:00,
2013-01-17 08:20:00,31.5,26.0,30.38,West,280,1.0,12.0,80,0.00,,,0.00,VWS V14.01,2013-01-17 14:20:00,
2013-01-17 08:25:00,31.5,26.0,30.38,SW,225,2.0,12.0,80,0.00,,,0.00,VWS V14.01,2013-01-17 14:25:00,
2013-01-17 08:30:00,31.5,26.0,30.38,ESE,105,5.0,5.0,80,0.00,,,0.00,VWS V14.01,2013-01-17 14:30:00,
2013-01-17 08:35:00,31.4,25.6,30.39,West,264,1.0,13.0,79,0.00,,,0.00,VWS V14.01,2013-01-17 14:35:00,
2013-01-17 08:40:00,31.4,25.4,30.39,SE,128,5.0,13.0,78,0.00,,,0.00,VWS V14.01,2013-01-17 14:40:00,
2013-01-17 08:45:00,31.4,25.4,30.40,ESE,104,2.0,13.0,78,0.00,,,0.00,VWS V14.01,2013-01-17 14:45:00,
2013-01-17 08:50:00,31.5,25.4,30.40,NNW,343,2.0,13.0,78,0.00,,,0.00,VWS V14.01,2013-01-17 14:50:00,
2013-01-17 08:55:00,31.5,25.1,30.41,NNW,327,1.0,13.0,77,0.00,,,0.00,VWS V14.01,2013-01-17 14:55:00,
2013-01-17 09:00:00,31.7,25.0,30.41,NW,309,0.0,0.0,76,0.00,,,0.00,VWS V14.01,2013-01-17 15:00:00,
2013-01-17 09:06:00,31.9,24.9,30.41,SW,234,2.0,8.0,75,0.00,,,0.00,VWS V14.01,2013-01-17 15:06:00,
2013-01-17 09:11:00,32.0,24.7,30.41,West,271,0.0,8.0,74,0.00,,,0.00,VWS V14.01,2013-01-17 15:11:00,
2013-01-17 09:16:00,32.0,24.3,30.42,WNW,300,1.0,14.0,73,0.00,,,0.00,VWS V14.01,2013-01-17 15:16:00,
2013-01-17 09:21:00,31.9,24.2,30.42,WNW,285,5.0,14.0,73,0.00,,,0.00,VWS V14.01,2013-01-17 15:21:00,
2013-01-17 09:26:00,32.0,25.9,30.42,SSE,148,5.0,14.0,78,0.00,,,0.00,VWS V14.01,2013-01-17 15:26:00,
2013-01-17 09:31:00,32.2,24.2,30.43,West,264,3.0,3.0,72,0.00,,,0.00,VWS V14.01,2013-01-17 15:31:00,
2013-01-17 09:36:00,32.3,24.3,30.43,ESE,122,1.0,7.0,72,0.00,,,0.00,VWS V14.01,2013-01-17 15:36:00,
2013-01-17 09:41:00,32.4,23.7,30.43,NNW,346,4.0,8.0,70,0.00,,,0.00,VWS V14.01,2013-01-17 15:41:00,
2013-01-17 09:46:00,32.3,23.6,30.44,NW,309,13.0,16.0,70,0.00,,,0.00,VWS V14.01,2013-01-17 15:46:00,
2013-01-17 09:51:00,32.3,23.3,30.43,WSW,254,6.0,16.0,69,0.00,,,0.00,VWS V14.01,2013-01-17 15:51:00,
2013-01-17 09:56:00,32.4,23.0,30.43,WNW,290,5.0,16.0,68,0.00,,,0.00,VWS V14.01,2013-01-17 15:56:00,
2013-01-17 10:01:00,32.5,23.8,30.43,NNW,329,0.0,1.0,70,0.00,,,0.00,VWS V14.01,2013-01-17 16:01:00,
2013-01-17 10:06:00,32.6,23.9,30.44,West,281,5.0,13.0,70,0.01,,,0.01,VWS V14.01,2013-01-17 16:06:00,
2013-01-17 10:11:00,32.5,23.8,30.44,WNW,288,6.0,13.0,70,0.01,,,0.01,VWS V14.01,2013-01-17 16:11:00,
2013-01-17 10:16:00,32.4,23.4,30.44,West,279,7.0,13.0,69,0.01,,,0.01,VWS V14.01,2013-01-17 16:16:00,
2013-01-17 10:21:00,32.4,23.0,30.44,WNW,294,4.0,13.0,68,0.01,,,0.01,VWS V14.01,2013-01-17 16:21:00,
2013-01-17 10:26:00,32.8,23.1,30.44,WNW,288,2.0,13.0,67,0.01,,,0.01,VWS V14.01,2013-01-17 16:26:00,
2013-01-17 10:31:00,33.0,22.2,30.44,West,271,5.0,5.0,64,0.01,,,0.01,VWS V14.01,2013-01-17 16:31:00,
2013-01-17 10:36:00,33.2,21.6,30.44,NW,311,1.0,5.0,62,0.01,,,0.01,VWS V14.01,2013-01-17 16:36:00,
2013-01-17 10:41:00,33.3,21.7,30.45,NNE,13,4.0,8.0,62,0.01,,,0.01,VWS V14.01,2013-01-17 16:41:00,
2013-01-17 10:46:00,33.5,21.9,30.44,WNW,284,9.0,10.0,62,0.01,,,0.01,VWS V14.01,2013-01-17 16:46:00,
2013-01-17 10:51:00,33.6,22.0,30.44,NW,313,1.0,13.0,62,0.01,,,0.01,VWS V14.01,2013-01-17 16:51:00,
2013-01-17 10:56:00,33.7,22.1,30.44,NW,325,5.0,13.0,62,0.01,,,0.01,VWS V14.01,2013-01-17 16:56:00,
2013-01-17 11:01:00,34.0,22.0,30.44,NW,308,6.0,6.0,61,0.01,,,0.01,VWS V14.01,2013-01-17 17:01:00,
2013-01-17 11:06:00,34.0,22.0,30.44,North,355,1.0,12.0,61,0.01,,,0.01,VWS V14.01,2013-01-17 17:06:00,
2013-01-17 11:11:00,34.1,21.3,30.44,NW,306,12.0,13.0,59,0.01,,,0.01,VWS V14.01,2013-01-17 17:11:00,
2013-01-17 11:16:00,33.9,21.1,30.44,WNW,290,6.0,16.0,59,0.01,,,0.01,VWS V14.01,2013-01-17 17:16:00,
2013-01-17 11:21:00,34.0,21.2,30.43,ENE,67,4.0,16.0,59,0.01,,,0.01,VWS V14.01,2013-01-17 17:21:00,
2013-01-17 11:26:00,34.4,20.8,30.42,WSW,253,5.0,16.0,57,0.01,,,0.01,VWS V14.01,2013-01-17 17:26:00,
2013-01-17 11:31:00,34.3,19.8,30.43,WNW,282,5.0,8.0,55,0.00,,,0.01,VWS V14.01,2013-01-17 17:31:00,
2013-01-17 11:36:00,34.5,20.0,30.43,WNW,292,13.0,13.0,55,0.00,,,0.01,VWS V14.01,2013-01-17 17:36:00,
2013-01-17 11:41:00,34.6,19.7,30.43,WNW,294,5.0,15.0,54,0.00,,,0.01,VWS V14.01,2013-01-17 17:41:00,
2013-01-17 11:46:00,34.4,19.5,30.43,WNW,297,1.0,15.0,54,0.00,,,0.01,VWS V14.01,2013-01-17 17:46:00,
2013-01-17 11:51:00,34.5,20.0,30.43,WNW,296,4.0,15.0,55,0.00,,,0.01,VWS V14.01,2013-01-17 17:51:00,
2013-01-17 11:56:00,34.8,20.7,30.43,NW,312,0.0,15.0,56,0.00,,,0.01,VWS V14.01,2013-01-17 17:56:00,
2013-01-17 12:01:00,35.1,21.8,30.42,WNW,296,0.0,6.0,58,0.00,,,0.01,VWS V14.01,2013-01-17 18:01:00,
2013-01-17 12:06:00,35.3,22.0,30.42,North,5,3.0,11.0,58,0.00,,,0.01,VWS V14.01,2013-01-17 18:06:00,
2013-01-17 12:11:00,35.2,21.5,30.42,NW,318,4.0,11.0,57,0.00,,,0.01,VWS V14.01,2013-01-17 18:11:00,
2013-01-17 12:16:00,35.3,21.6,30.42,WNW,303,5.0,11.0,57,0.00,,,0.01,VWS V14.01,2013-01-17 18:16:00,
2013-01-17 12:21:00,35.4,21.7,30.42,NW,323,9.0,11.0,57,0.00,,,0.01,VWS V14.01,2013-01-17 18:21:00,
2013-01-17 12:26:00,35.5,21.0,30.41,West,267,5.0,11.0,55,0.00,,,0.01,VWS V14.01,2013-01-17 18:26:00,
2013-01-17 12:31:00,35.4,20.9,30.41,WNW,296,7.0,18.0,55,0.00,,,0.01,VWS V14.01,2013-01-17 18:31:00,
2013-01-17 12:36:00,35.5,21.0,30.41,NW,311,0.0,18.0,55,0.00,,,0.01,VWS V14.01,2013-01-17 18:36:00,
2013-01-17 12:41:00,35.7,20.7,30.41,West,271,0.0,18.0,54,0.00,,,0.01,VWS V14.01,2013-01-17 18:41:00,
2013-01-17 12:46:00,35.8,19.9,30.41,NNE,30,1.0,18.0,52,0.00,,,0.01,VWS V14.01,2013-01-17 18:46:00,
2013-01-17 12:51:00,35.9,20.0,30.41,NW,316,2.0,18.0,52,0.00,,,0.01,VWS V14.01,2013-01-17 18:51:00,
2013-01-17 12:56:00,35.9,19.5,30.41,WNW,296,4.0,18.0,51,0.00,,,0.01,VWS V14.01,2013-01-17 18:56:00,
2013-01-17 13:01:00,35.8,19.5,30.41,WSW,257,5.0,9.0,51,0.00,,,0.01,VWS V14.01,2013-01-17 19:01:00,
2013-01-17 13:06:00,35.9,19.5,30.42,East,88,3.0,13.0,51,0.00,,,0.01,VWS V14.01,2013-01-17 19:06:00,
2013-01-17 13:11:00,36.2,19.4,30.42,WNW,288,1.0,13.0,50,0.00,,,0.01,VWS V14.01,2013-01-17 19:11:00,
2013-01-17 13:16:00,36.4,19.1,30.42,NNW,344,1.0,13.0,49,0.00,,,0.01,VWS V14.01,2013-01-17 19:16:00,
2013-01-17 13:21:00,36.2,18.4,30.42,NW,317,5.0,14.0,48,0.00,,,0.01,VWS V14.01,2013-01-17 19:21:00,
2013-01-17 13:26:00,36.2,18.9,30.42,WNW,303,5.0,14.0,49,0.00,,,0.01,VWS V14.01,2013-01-17 19:26:00,
2013-01-17 13:31:00,36.0,17.2,30.42,NNW,332,5.0,17.0,46,0.00,,,0.01,VWS V14.01,2013-01-17 19:31:00,
2013-01-17 13:36:00,35.9,17.6,30.42,NW,306,2.0,17.0,47,0.00,,,0.01,VWS V14.01,2013-01-17 19:36:00,
2013-01-17 13:42:00,36.1,18.8,30.42,NW,304,8.0,17.0,49,0.00,,,0.01,VWS V14.01,2013-01-17 19:42:00,
2013-01-17 13:47:00,35.9,19.1,30.42,WNW,288,5.0,17.0,50,0.00,,,0.01,VWS V14.01,2013-01-17 19:47:00,
2013-01-17 13:52:00,36.1,19.7,30.42,SE,145,4.0,18.0,51,0.00,,,0.01,VWS V14.01,2013-01-17 19:52:00,
2013-01-17 13:57:00,36.3,19.5,30.42,North,5,4.0,18.0,50,0.00,,,0.01,VWS V14.01,2013-01-17 19:57:00,
2013-01-17 14:02:00,36.2,19.4,30.42,WNW,298,5.0,9.0,50,0.00,,,0.01,VWS V14.01,2013-01-17 20:02:00,
2013-01-17 14:07:00,36.2,19.4,30.42,WNW,292,9.0,14.0,50,0.00,,,0.01,VWS V14.01,2013-01-17 20:07:00,
2013-01-17 14:12:00,36.2,18.4,30.42,NW,317,5.0,14.0,48,0.00,,,0.01,VWS V14.01,2013-01-17 20:12:00,
2013-01-17 14:17:00,36.2,18.4,30.42,WNW,286,0.0,14.0,48,0.00,,,0.01,VWS V14.01,2013-01-17 20:17:00,
2013-01-17 14:22:00,36.4,18.6,30.42,WNW,298,2.0,14.0,48,0.00,,,0.01,VWS V14.01,2013-01-17 20:22:00,
2013-01-17 14:27:00,36.6,18.3,30.43,NNW,338,4.0,14.0,47,0.00,,,0.01,VWS V14.01,2013-01-17 20:27:00,
2013-01-17 14:32:00,36.6,18.3,30.42,WNW,302,1.0,12.0,47,0.00,,,0.01,VWS V14.01,2013-01-17 20:32:00,
2013-01-17 14:37:00,36.7,18.4,30.42,NW,309,0.0,12.0,47,0.00,,,0.01,VWS V14.01,2013-01-17 20:37:00,
2013-01-17 14:42:00,36.8,18.5,30.42,North,360,5.0,12.0,47,0.00,,,0.01,VWS V14.01,2013-01-17 20:42:00,
2013-01-17 14:47:00,36.7,18.4,30.43,NNW,327,2.0,15.0,47,0.00,,,0.01,VWS V14.01,2013-01-17 20:47:00,
2013-01-17 14:52:00,36.9,18.6,30.43,West,278,7.0,15.0,47,0.00,,,0.01,VWS V14.01,2013-01-17 20:52:00,
2013-01-17 14:57:00,37.0,18.7,30.43,WNW,282,5.0,15.0,47,0.00,,,0.01,VWS V14.01,2013-01-17 20:57:00,
2013-01-17 15:02:00,37.2,18.8,30.43,NW,319,4.0,10.0,47,0.00,,,0.01,VWS V14.01,2013-01-17 21:02:00,
2013-01-17 15:07:00,37.1,18.8,30.43,WNW,293,8.0,12.0,47,0.00,,,0.01,VWS V14.01,2013-01-17 21:07:00,
2013-01-17 15:12:00,36.9,18.6,30.43,WNW,299,2.0,15.0,47,0.00,,,0.01,VWS V14.01,2013-01-17 21:12:00,
2013-01-17 15:17:00,37.0,19.1,30.43,NW,320,2.0,15.0,48,0.00,,,0.01,VWS V14.01,2013-01-17 21:17:00,
2013-01-17 15:22:00,37.0,18.7,30.43,North,360,3.0,21.0,47,0.00,,,0.01,VWS V14.01,2013-01-17 21:22:00,
2013-01-17 15:27:00,37.0,19.1,30.43,NE,42,0.0,21.0,48,0.00,,,0.01,VWS V14.01,2013-01-17 21:27:00,
2013-01-17 15:32:00,37.0,19.1,30.43,WNW,286,6.0,8.0,48,0.00,,,0.01,VWS V14.01,2013-01-17 21:32:00,
2013-01-17 15:37:00,37.0,19.6,30.43,WNW,288,1.0,12.0,49,0.00,,,0.01,VWS V14.01,2013-01-17 21:37:00,
2013-01-17 15:42:00,37.0,19.6,30.44,WNW,298,0.0,13.0,49,0.00,,,0.01,VWS V14.01,2013-01-17 21:42:00,
2013-01-17 15:47:00,37.0,19.1,30.44,WNW,300,5.0,13.0,48,0.00,,,0.01,VWS V14.01,2013-01-17 21:47:00,
2013-01-17 15:52:00,37.0,19.6,30.44,West,273,0.0,13.0,49,0.00,,,0.01,VWS V14.01,2013-01-17 21:52:00,
2013-01-17 15:57:00,36.9,19.5,30.45,West,281,1.0,13.0,49,0.00,,,0.01,VWS V14.01,2013-01-17 21:57:00,
2013-01-17 16:02:00,36.8,19.9,30.45,West,276,4.0,7.0,50,0.00,,,0.01,VWS V14.01,2013-01-17 22:02:00,
2013-01-17 16:07:00,36.7,19.8,30.46,NNW,348,1.0,7.0,50,0.00,,,0.01,VWS V14.01,2013-01-17 22:07:00,
2013-01-17 16:12:00,36.6,20.2,30.46,WNW,301,4.0,9.0,51,0.00,,,0.01,VWS V14.01,2013-01-17 22:12:00,
2013-01-17 16:17:00,36.6,19.7,30.46,WNW,287,2.0,9.0,50,0.00,,,0.01,VWS V14.01,2013-01-17 22:17:00,
2013-01-17 16:22:00,36.5,20.1,30.46,WNW,299,1.0,9.0,51,0.00,,,0.01,VWS V14.01,2013-01-17 22:22:00,
2013-01-17 16:27:00,36.4,20.0,30.46,WNW,286,2.0,9.0,51,0.00,,,0.01,VWS V14.01,2013-01-17 22:27:00,
2013-01-17 16:32:00,36.4,20.0,30.46,NW,306,5.0,5.0,51,0.00,,,0.01,VWS V14.01,2013-01-17 22:32:00,
2013-01-17 16:37:00,36.3,19.9,30.46,NW,309,1.0,8.0,51,0.00,,,0.01,VWS V14.01,2013-01-17 22:37:00,
2013-01-17 16:42:00,36.3,19.9,30.46,NW,308,0.0,8.0,51,0.00,,,0.01,VWS V14.01,2013-01-17 22:42:00,
2013-01-17 16:47:00,36.3,20.4,30.46,NW,308,0.0,8.0,52,0.00,,,0.01,VWS V14.01,2013-01-17 22:47:00,
2013-01-17 16:53:00,36.3,20.4,30.45,NW,308,0.0,8.0,52,0.00,,,0.01,VWS V14.01,2013-01-17 22:53:00,
2013-01-17 16:58:00,36.0,20.5,30.46,NW,308,0.0,8.0,53,0.00,,,0.01,VWS V14.01,2013-01-17 22:58:00,
2013-01-17 17:03:00,35.6,20.6,30.46,NW,308,0.0,0.0,54,0.00,,,0.01,VWS V14.01,2013-01-17 23:03:00,
2013-01-17 17:08:00,35.1,20.6,30.46,NW,308,1.0,2.0,55,0.00,,,0.01,VWS V14.01,2013-01-17 23:08:00,
2013-01-17 17:13:00,34.5,20.4,30.46,NW,308,0.0,2.0,56,0.00,,,0.01,VWS V14.01,2013-01-17 23:13:00,
2013-01-17 17:18:00,33.9,20.3,30.46,NW,308,0.0,2.0,57,0.00,,,0.01,VWS V14.01,2013-01-17 23:18:00,
2013-01-17 17:28:00,32.9,20.2,30.46,NW,308,0.0,2.0,59,0.00,,,0.01,VWS V14.01,2013-01-17 23:28:00,
2013-01-17 17:33:00,32.5,20.2,30.46,NW,308,0.0,0.0,60,0.00,,,0.01,VWS V14.01,2013-01-17 23:33:00,
2013-01-17 17:38:00,32.0,20.1,30.46,NW,308,1.0,2.0,61,0.00,,,0.01,VWS V14.01,2013-01-17 23:38:00,
2013-01-17 17:43:00,31.4,19.9,30.47,NW,308,0.0,2.0,62,0.00,,,0.01,VWS V14.01,2013-01-17 23:43:00,
2013-01-17 17:48:00,31.1,20.0,30.47,NW,308,0.0,2.0,63,0.00,,,0.01,VWS V14.01,2013-01-17 23:48:00,
2013-01-17 17:53:00,30.8,20.1,30.47,NW,308,0.0,2.0,64,0.00,,,0.01,VWS V14.01,2013-01-17 23:53:00,
2013-01-17 17:58:00,30.6,19.9,30.47,NW,308,0.0,2.0,64,0.00,,,0.01,VWS V14.01,2013-01-17 23:58:00,
2013-01-17 18:03:00,30.3,20.0,30.48,NW,308,0.0,1.0,65,0.00,,,0.01,VWS V14.01,2013-01-18 00:03:00,
2013-01-17 18:08:00,30.1,20.1,30.48,NW,308,0.0,2.0,66,0.00,,,0.01,VWS V14.01,2013-01-18 00:08:00,
2013-01-17 18:13:00,29.8,20.2,30.48,NW,308,0.0,2.0,67,0.00,,,0.01,VWS V14.01,2013-01-18 00:13:00,
2013-01-17 18:18:00,29.6,20.0,30.48,NW,308,0.0,2.0,67,0.00,,,0.01,VWS V14.01,2013-01-18 00:18:00,
2013-01-17 18:23:00,29.3,20.1,30.48,NW,308,0.0,2.0,68,0.00,,,0.01,VWS V14.01,2013-01-18 00:23:00,
2013-01-17 18:28:00,29.1,19.9,30.48,NW,308,0.0,2.0,68,0.00,,,0.01,VWS V14.01,2013-01-18 00:28:00,
2013-01-17 18:33:00,29.0,20.1,30.48,NW,308,0.0,0.0,69,0.00,,,0.01,VWS V14.01,2013-01-18 00:33:00,
2013-01-17 18:38:00,28.8,20.6,30.49,NW,308,0.0,0.0,71,0.00,,,0.01,VWS V14.01,2013-01-18 00:38:00,
2013-01-17 18:43:00,28.6,20.4,30.49,NW,308,0.0,0.0,71,0.00,,,0.01,VWS V14.01,2013-01-18 00:43:00,
2013-01-17 18:48:00,28.4,20.2,30.49,NW,308,0.0,0.0,71,0.00,,,0.01,VWS V14.01,2013-01-18 00:48:00,
2013-01-17 18:53:00,28.4,19.9,30.49,NW,308,0.0,0.0,70,0.00,,,0.01,VWS V14.01,2013-01-18 00:53:00,
2013-01-17 18:58:00,28.4,19.9,30.49,NW,308,0.0,0.0,70,0.00,,,0.01,VWS V14.01,2013-01-18 00:58:00,
2013-01-17 19:03:00,28.4,19.5,30.49,NW,308,0.0,0.0,69,0.00,,,0.01,VWS V14.01,2013-01-18 01:03:00,
2013-01-17 19:08:00,28.2,19.7,30.49,NW,308,0.0,0.0,70,0.00,,,0.01,VWS V14.01,2013-01-18 01:08:00,
2013-01-17 19:13:00,28.0,19.8,30.49,NW,308,0.0,0.0,71,0.00,,,0.01,VWS V14.01,2013-01-18 01:13:00,
2013-01-17 19:18:00,27.8,20.3,30.49,NW,308,0.0,0.0,73,0.00,,,0.01,VWS V14.01,2013-01-18 01:18:00,
2013-01-17 19:23:00,27.7,20.2,30.49,NW,308,0.0,0.0,73,0.00,,,0.01,VWS V14.01,2013-01-18 01:23:00,
2013-01-17 19:28:00,27.6,19.8,30.49,NW,308,0.0,0.0,72,0.00,,,0.01,VWS V14.01,2013-01-18 01:28:00,
2013-01-17 19:33:00,27.7,19.5,30.49,NW,308,0.0,0.0,71,0.00,,,0.01,VWS V14.01,2013-01-18 01:33:00,
2013-01-17 19:38:00,27.7,19.9,30.50,NW,308,0.0,0.0,72,0.00,,,0.01,VWS V14.01,2013-01-18 01:38:00,
2013-01-17 19:43:00,27.6,19.8,30.50,NW,308,0.0,0.0,72,0.00,,,0.01,VWS V14.01,2013-01-18 01:43:00,
2013-01-17 19:53:00,27.3,19.8,30.50,NW,308,0.0,0.0,73,0.00,,,0.01,VWS V14.01,2013-01-18 01:53:00,
2013-01-17 19:58:00,27.2,19.7,30.50,NW,308,0.0,0.0,73,0.00,,,0.01,VWS V14.01,2013-01-18 01:58:00,
2013-01-17 20:03:00,27.3,19.5,30.50,NW,308,0.0,0.0,72,0.00,,,0.01,VWS V14.01,2013-01-18 02:03:00,
2013-01-17 20:08:00,27.4,19.2,30.50,NW,308,0.0,0.0,71,0.00,,,0.01,VWS V14.01,2013-01-18 02:08:00,
2013-01-17 20:13:00,27.4,19.2,30.50,NW,308,0.0,0.0,71,0.00,,,0.01,VWS V14.01,2013-01-18 02:13:00,
2013-01-17 20:18:00,27.3,19.5,30.50,NW,308,0.0,0.0,72,0.00,,,0.01,VWS V14.01,2013-01-18 02:18:00,
2013-01-17 20:23:00,26.9,19.1,30.50,NW,308,0.0,1.0,72,0.00,,,0.01,VWS V14.01,2013-01-18 02:23:00,
2013-01-17 20:28:00,26.7,19.2,30.49,NW,308,0.0,1.0,73,0.00,,,0.01,VWS V14.01,2013-01-18 02:28:00,
2013-01-17 20:33:00,26.5,19.4,30.50,NW,308,0.0,1.0,74,0.00,,,0.01,VWS V14.01,2013-01-18 02:33:00,
2013-01-17 20:38:00,26.3,19.5,30.50,NW,308,0.0,1.0,75,0.00,,,0.01,VWS V14.01,2013-01-18 02:38:00,
2013-01-17 20:43:00,26.2,19.4,30.50,NW,308,0.0,1.0,75,0.00,,,0.01,VWS V14.01,2013-01-18 02:43:00,
2013-01-17 20:48:00,26.0,19.2,30.50,NW,308,0.0,1.0,75,0.00,,,0.01,VWS V14.01,2013-01-18 02:48:00,
2013-01-17 20:53:00,25.9,19.4,30.50,NW,308,0.0,1.0,76,0.00,,,0.01,VWS V14.01,2013-01-18 02:53:00,
2013-01-17 20:58:00,25.7,19.2,30.50,NW,308,0.0,1.0,76,0.00,,,0.01,VWS V14.01,2013-01-18 02:58:00,
2013-01-17 21:03:00,25.4,18.9,30.51,NW,308,0.0,0.0,76,0.00,,,0.01,VWS V14.01,2013-01-18 03:03:00,
2013-01-17 21:08:00,25.2,18.7,30.51,NW,308,0.0,0.0,76,0.00,,,0.01,VWS V14.01,2013-01-18 03:08:00,
2013-01-17 21:13:00,25.0,18.5,30.51,NW,308,0.0,0.0,76,0.00,,,0.01,VWS V14.01,2013-01-18 03:13:00,
2013-01-17 21:18:00,24.7,18.5,30.51,NW,308,2.0,2.0,77,0.00,,,0.01,VWS V14.01,2013-01-18 03:18:00,
2013-01-17 21:23:00,24.6,18.7,30.51,NW,308,1.0,2.0,78,0.00,,,0.01,VWS V14.01,2013-01-18 03:23:00,
2013-01-17 21:28:00,24.6,18.7,30.51,NW,308,0.0,2.0,78,0.00,,,0.01,VWS V14.01,2013-01-18 03:28:00,
2013-01-17 21:34:00,24.6,18.7,30.51,NW,308,0.0,0.0,78,0.00,,,0.01,VWS V14.01,2013-01-18 03:34:00,
2013-01-17 21:39:00,24.4,18.5,30.51,NW,308,0.0,0.0,78,0.00,,,0.01,VWS V14.01,2013-01-18 03:39:00,
2013-01-17 21:44:00,24.3,18.4,30.51,NW,308,0.0,0.0,78,0.00,,,0.01,VWS V14.01,2013-01-18 03:44:00,
2013-01-17 21:49:00,24.1,18.5,30.51,NW,308,0.0,0.0,79,0.00,,,0.01,VWS V14.01,2013-01-18 03:49:00,
2013-01-17 21:54:00,24.0,18.5,30.50,NW,308,0.0,0.0,79,0.00,,,0.01,VWS V14.01,2013-01-18 03:54:00,
2013-01-17 21:59:00,23.9,18.4,30.50,NW,308,0.0,0.0,79,0.00,,,0.01,VWS V14.01,2013-01-18 03:59:00,
2013-01-17 22:04:00,23.7,18.5,30.50,NW,308,0.0,0.0,80,0.00,,,0.01,VWS V14.01,2013-01-18 04:04:00,
2013-01-17 22:09:00,23.6,18.4,30.50,NW,308,0.0,0.0,80,0.00,,,0.01,VWS V14.01,2013-01-18 04:09:00,
2013-01-17 22:14:00,23.5,18.2,30.50,NW,308,0.0,2.0,80,0.00,,,0.01,VWS V14.01,2013-01-18 04:14:00,
2013-01-17 22:19:00,23.5,18.2,30.50,NW,308,0.0,2.0,80,0.00,,,0.01,VWS V14.01,2013-01-18 04:19:00,
2013-01-17 22:24:00,23.4,18.1,30.50,NW,308,0.0,2.0,80,0.00,,,0.01,VWS V14.01,2013-01-18 04:24:00,
2013-01-17 22:29:00,23.3,18.1,30.50,NW,308,0.0,2.0,80,0.00,,,0.01,VWS V14.01,2013-01-18 04:29:00,
2013-01-17 22:34:00,23.3,18.1,30.50,NW,308,1.0,1.0,80,0.00,,,0.01,VWS V14.01,2013-01-18 04:34:00,
2013-01-17 22:39:00,23.2,18.0,30.50,NW,308,0.0,1.0,80,0.00,,,0.01,VWS V14.01,2013-01-18 04:39:00,
2013-01-17 22:44:00,23.2,18.2,30.50,NW,308,1.0,2.0,81,0.00,,,0.01,VWS V14.01,2013-01-18 04:44:00,
2013-01-17 22:49:00,23.2,18.0,30.50,NW,308,1.0,2.0,80,0.00,,,0.01,VWS V14.01,2013-01-18 04:49:00,
2013-01-17 22:54:00,23.2,18.2,30.50,NW,308,0.0,2.0,81,0.00,,,0.01,VWS V14.01,2013-01-18 04:54:00,
2013-01-17 22:59:00,23.1,17.9,30.49,NW,308,0.0,2.0,80,0.00,,,0.01,VWS V14.01,2013-01-18 04:59:00,
2013-01-17 23:04:00,23.0,17.8,30.49,NW,308,0.0,0.0,80,0.00,,,0.01,VWS V14.01,2013-01-18 05:04:00,
2013-01-17 23:09:00,22.9,18.0,30.50,NW,308,0.0,0.0,81,0.00,,,0.01,VWS V14.01,2013-01-18 05:09:00,
2013-01-17 23:14:00,22.7,17.8,30.50,NW,308,0.0,0.0,81,0.00,,,0.01,VWS V14.01,2013-01-18 05:14:00,
2013-01-17 23:19:00,22.6,17.7,30.50,NW,308,0.0,0.0,81,0.00,,,0.01,VWS V14.01,2013-01-18 05:19:00,
2013-01-17 23:24:00,22.6,17.9,30.50,NW,308,0.0,0.0,82,0.00,,,0.01,VWS V14.01,2013-01-18 05:24:00,
2013-01-17 23:29:00,22.5,17.9,30.50,NW,308,0.0,0.0,82,0.00,,,0.01,VWS V14.01,2013-01-18 05:29:00,
2013-01-17 23:34:00,22.4,17.8,30.50,NW,308,0.0,0.0,82,0.00,,,0.01,VWS V14.01,2013-01-18 05:34:00,
2013-01-17 23:39:00,22.3,17.6,30.51,NW,308,0.0,0.0,82,0.00,,,0.01,VWS V14.01,2013-01-18 05:39:00,
2013-01-17 23:44:00,22.2,17.5,30.51,NW,308,1.0,1.0,82,0.00,,,0.01,VWS V14.01,2013-01-18 05:44:00,
2013-01-17 23:49:00,22.2,17.5,30.51,NW,308,1.0,2.0,82,0.00,,,0.01,VWS V14.01,2013-01-18 05:49:00,
2013-01-17 23:54:00,22.1,17.5,30.51,NW,308,0.0,2.0,82,0.00,,,0.01,VWS V14.01,2013-01-18 05:54:00,
2013-01-17 23:59:00,22.1,17.7,30.51,NW,308,0.0,2.0,83,0.00,,,0.01,VWS V14.01,2013-01-18 05:59:00,